Location: Brabourne
(51.1333°N, 1.0000°E)
Time: 21:26:31
(UTC+00:00)

X-37B - Pass Details

Date: 20 June 2021
Orbit: 383 x 392 km, 45.0° (Epoch: 01 July)

Event Time Altitude Azimuth Distance (km) Brightness Sun altitude
Exits shadow 00:28:43 14° 122° (ESE) 1,194 2.8 -15.1°
Drops below altitude 10° 00:29:22 10° 114° (ESE) 1,406 3.2 -15.1°
Sets 00:31:40 0° 101° (E) 2,262 4.4 -15.1°
